Location: Matera
(40.6670°N, 16.6000°E)
Time: 20:33:06
(UTC+01:00)

ISS - Pass Details

Date: 31 January 2019
Orbit: 403 x 411 km, 51.6° (Epoch: 18 February)

Event Time Altitude Azimuth Distance (km) Brightness Sun altitude
Rises 18:11:12 0° 298° (WNW) 2,333 0.9 -12.0°
Reaches altitude 10° 18:14:16 10° 329° (NNW) 1,475 -0.8 -12.5°
Maximum altitude 18:15:47 13° 357° (N) 1,332 -1.3 -12.8°
Enters shadow 18:17:15 10° 23° (NNE) 1,466 -1.3 -13.1°
